sat.trackr.live / text

‹ back to catalog

STARLINK-32705

NORAD 62479 · 2024-254T

PAYLOAD ACTIVE UNKNOWN

§ Identity

Operator
Country
US
Launch date
2024-12-31
Launch site
AFETR
Launch vehicle
Mass (kg)
RCS (m²)

Purposes: comms

External: N2YO · Heavens-Above · Gunter

§ Orbital elements

Epoch: 2026-05-25T03:30:57.766752Z

Period
94.27 min
Inclination
43.0021°
Eccentricity
0.0001840
Mean motion
15.27582596 rev/d
Perigee alt
481.8 km
Apogee alt
484.3 km
Semi-major
6,861.2 km
B*
6.3596e-4
RAAN
297.0066°
Arg perigee
269.2699°
Mean anomaly
90.7942°
Rev number
7,927

§ Raw data

STARLINK-327051 62479U 24254T   26145.14650193  .00017281  00000+0  63596-3 0  99922 62479  43.0021 297.0066 0001840 269.2699  90.7942 15.27582596 79272

JSON: /api/v1/satellites/62479 · /tle

For live sub-satellite position, see the globe view (requires WebGL).

§ Visibility from observer

Set your observer location to see the next 7 days of passes ≥ 10°. The values pass through the URL so the page stays shareable.

No JS? Fill the form by hand. The geolocation button needs JavaScript.